Regional Weather Roundup
Issued by NWS Cleveland, OH

Home | Current Version | Previous Version | Graphics & Text | Print | Product List | Glossary On
Versions: 1 2 3 4 5 6 7 8 9 10 11 12 13 14 15 16 17 18 19 20 21 22 23 24 25 26 27 28 29 30 31 32 33 34 35 36 37 38 39 40 41 42 43 44 45 46 47 48 49 50
000
ASUS41 KCLE 010310
RWRCLE
OHIO REGIONAL WEATHER ROUNDUP
NATIONAL WEATHER SERVICE WILMINGTON, OH
1100 PM EDT FRI JUL 31 2015

NOTE: "FAIR" INDICATES FEW OR NO CLOUDS BELOW 12,000 FEET WITH NO
SIGNIFICANT WEATHER AND/OR OBSTRUCTIONS TO VISIBILITY.

OHZ001>008-015>018-024>027-034-035-043-044-010400-
   NORTHWEST OHIO

CITY           SKY/WX    TMP DP  RH WIND       PRES   REMARKS
DEFIANCE       CLEAR     73  53  49 W5        29.94R
FINDLAY        PTCLDY    71  62  73 W7        29.93R
TOLEDO EXPRESS CLEAR     70  55  59 W7        29.91R
TOLEDO EXEC    CLEAR     73  53  49 W10       29.91R
LIMA           MOCLDY    67  65  93 W5        29.95R
$$

OHZ009>014-019>023-028>033-038-089-010400-
   NORTHEAST OHIO

CITY           SKY/WX    TMP DP  RH WIND       PRES   REMARKS
CLE-HOPKINS    CLEAR     72  60  66 SW8       29.91R
CLE-LAKEFRONT  PTCLDY    78  63  59 W13       29.87R
CUY CO. ARPT   PTCLDY    79  63  57 W12       29.88R
LORAIN-ELYRIA  CLEAR     67  61  81 W6        29.90R
ASHTABULA      PTCLDY    73  59  61 W8        29.87R
AKRON-CANTON   PTCLDY    74  59  59 W8        29.92R
WOOSTER        CLEAR     67  60  78 W7        29.93R
MANSFIELD      CLEAR     70  61  73 SW6       29.94R
YOUNGSTOWN     MOCLDY    74  58  57 SW9       29.89R
$$

OHZ042-051>053-060>062-070>072-077>081-010400-
  SOUTHWEST OHIO

CITY           SKY/WX    TMP DP  RH WIND       PRES   REMARKS
CINC-COVINGTON PTCLDY    76  60  57 SW7       29.99R
CINC-LUNKEN    PTCLDY    72  63  73 SW9       29.96S
HAMILTON       CLEAR     74  62  66 W3        29.98R
DAYTON         MOCLDY    70  64  81 NW7       29.97R
WRIGHT-PAT AFB PTCLDY    70  65  85 SW6       29.95R
DAYTON GENERAL CLEAR     77  60  55 W5        29.96R
WILMINGTON     MOCLDY    71  62  73 SW7       29.96S
$$

OHZ036-037-039>041-045>050-054>059-063>069-073>076-082>088-010400-
  CENTRAL AND SOUTHEAST OHIO

CITY           SKY/WX    TMP DP  RH WIND       PRES   REMARKS
COLUMBUS       PTCLDY    72  65  78 W5        29.93S
OSU AIRPORT    MOCLDY    73  64  73 W5        29.94S
BOLTON FIELD   PTCLDY    68  65  89 CALM      29.95S
RICKENBACK AFB PTCLDY    74  63  66 SW5       29.94R
NEWARK         CLOUDY    73  62  68 W5        29.93R
MARION         MOCLDY    72  61  68 W6        29.94R
LANCASTER      CLOUDY    74  63  68 SW5       29.95R
ZANESVILLE     MOCLDY    75  59  57 SW5       29.93S
NEW PHILLY     PTCLDY    74  61  63 VRB3      29.92S
$$



USA.gov is the U.S. government's official web portal to all federal, state and local government web resources and services.